Home   Weather   Almaty   Past weeks

Flag for Kazakhstan Past Weather in Almaty, Kazakhstan — Yesterday and Last 2 Weeks

Now
72 °F

Broken clouds.


Feels Like: 76 °F
Forecast: 49 / 80 °F
Wind: 10 mph from North

Location: Almaty Airport

Current Time: Jun 29, 2017 at 11:21:06 am

Latest Report: Jun 29, 2017 at 11:00 am


Visibility: N/A

Pressure: 29.95 "Hg (27.33 "Hg at 790m altitude)

Humidity: 61%

Dew Point: 57 °F

Location of AlmatyLocation

Past Weather in Almaty — Graph

°F

Almaty Temperature Yesterday

Maximum temperature yesterday: 81 °F (at 1:00 pm)
Minimum temperature yesterday: 59 °F (at 1:00 am)
Average temperature yesterday: 66 °F

High & Low Weather Summary for the Past Weeks

 TemperatureHumidityPressure
High100 °F (Jun 23, 3:00 pm)94% (Jun 27, 6:00 am)30.04 "Hg (Jun 27, 6:00 am)
Low55 °F (Jun 26, 3:30 am)11% (Jun 23, 3:30 pm)29.62 "Hg (Jun 23, 2:00 pm)
Average75 °F56%29.81 "Hg
* Reported Jun 14 10:00 am — Jun 29 10:00 am, Almaty. Weather by CustomWeather, © 2017

Note: Actual official high and low records may vary slightly from our data, if they occured in-between our weather recording intervals... More about our weather records

Advertising

Almaty Weather History for the Previous 24 Hours

Scroll right to see more
 ConditionsComfort  
Time TempWeatherWind HumidityBarometerVisibility
10:00 am
Thu, Jun 29
73 °FBroken clouds.6 mph57%29.92 "HgN/A
9:30 am70 °FBroken clouds.6 mph69%29.92 "HgN/A
8:30 am68 °FPartly sunny.3 mph69%29.92 "HgN/A
8:00 am70 °FPartly sunny.No wind60%29.92 "HgN/A
7:30 am64 °FPartly sunny.1 mph78%29.92 "HgN/A
7:00 am61 °FPartly sunny.3 mph83%29.92 "HgN/A
6:30 am59 °FBroken clouds.3 mph88%29.92 "HgN/A
6:00 am57 °FBroken clouds.3 mph94%29.92 "HgN/A
5:30 am55 °FBroken clouds.1 mph94%29.92 "HgN/A
5:00 am55 °FPassing clouds.1 mph94%29.89 "HgN/A
4:30 am57 °FPassing clouds.1 mph94%29.89 "HgN/A
4:00 am57 °FPassing clouds.1 mph94%29.89 "HgN/A
3:30 am57 °FPassing clouds.3 mph94%29.89 "HgN/A
3:00 am57 °FPassing clouds.3 mph88%29.89 "HgN/A
2:30 am57 °FPassing clouds.3 mph88%29.89 "HgN/A
2:00 am59 °FPassing clouds.3 mph82%29.89 "HgN/A
1:30 am59 °FPassing clouds.3 mph82%29.92 "HgN/A
1:00 am61 °FPassing clouds.6 mph77%29.92 "HgN/A
12:30 am61 °FPartly cloudy.6 mph77%29.92 "HgN/A
12:00 am61 °FPartly cloudy.6 mph77%29.95 "HgN/A
11:30 pm
Wed, Jun 28
61 °FPartly cloudy.6 mph83%29.95 "HgN/A
11:00 pm63 °FPartly cloudy.3 mph77%29.95 "HgN/A
10:30 pm63 °FPartly cloudy.6 mph77%29.95 "HgN/A
10:00 pm64 °FPartly cloudy.8 mph73%29.95 "HgN/A
9:30 pm63 °FPartly cloudy.10 mph77%29.95 "HgN/A
9:00 pm63 °FPartly cloudy.6 mph83%29.98 "HgN/A
8:30 pm63 °FBroken clouds.8 mph83%29.98 "HgN/A
8:00 pm63 °FPartly sunny.8 mph83%29.98 "HgN/A
7:30 pm61 °FMostly cloudy.6 mph88%30.01 "HgN/A
7:00 pm61 °FSprinkles. Mostly cloudy.8 mph88%30.01 "HgN/A
6:30 pm61 °FSprinkles. Mostly cloudy.13 mph88%30.04 "HgN/A
6:00 pm61 °FSprinkles. Fog.13 mph94%30.04 "Hg2 mi
5:30 pm61 °FSprinkles. Fog.15 mph94%30.04 "Hg3 mi
5:00 pm63 °FSprinkles. Fog.10 mph88%30.01 "Hg3 mi
4:30 pm63 °FSprinkles. Fog.13 mph88%30.01 "Hg3 mi
4:00 pm66 °FMostly cloudy.20 mph73%29.98 "HgN/A
3:30 pm72 °FMostly cloudy.6 mph69%29.92 "HgN/A
3:00 pm72 °FSprinkles. Mostly cloudy.6 mph69%29.89 "HgN/A
2:30 pm75 °FMostly cloudy.10 mph57%29.92 "HgN/A
2:00 pm77 °FThundershowers. Broken clouds.8 mph54%29.92 "HgN/A
1:30 pm77 °FThundershowers. Broken clouds.6 mph54%29.92 "HgN/A
1:00 pm81 °FPartly sunny.6 mph42%29.92 "HgN/A
12:30 pm79 °FBroken clouds.3 mph42%29.95 "HgN/A
12:00 pm77 °FPartly sunny.3 mph51%29.95 "HgN/A
11:30 am77 °FPartly sunny.3 mph54%29.95 "HgN/A
11:00 am75 °FPartly sunny.3 mph54%29.98 "HgN/A
Weather by CustomWeather, © 2017

See weather overviewHow to use our weather pages